Starlink 31547

operational
NORAD ID: 59364 Int'l Des: 2024-060 Owner: SPXS Country: US Constellation: starlink
LEOCIRCULAR

Über Starlink 31547

Beschreibung wird geladen...

Live-Position

3D-Globus wird geladen...

Nächste Überflüge

Höhenverlauf

Altitude vs Time

uPlot chart will show altitude changes over time

Zweizeiliger Elementsatz

1 59364U 24060S 26036.38529186 -.00000107 00000-0 56255-5 0 9995
2 59364 42.9992 70.9342 0000187 299.4183 60.6650 15.27572566105253
Epoch: 5. Feb. 2026 • Age: 12 hours

Aktueller Status

Höhe 496.3 km
Geschwindigkeit 7.62 km/s
Subsatellitenpunkt -43.02°S, 113.83°W
Startdatum 31. März 2024
Alter 1.8 years
Typ internet

Technische Details

Klassifizierung Payload
Masse 730.00 kg
Trockenmasse 700.00 kg
Gesamtmasse 730.00 kg
Länge 0.30 m
Durchmesser 4.10 m
Spannweite 29.00 m
Form Box + pan
Hersteller SPXS
Bus-Typ Starlink V2M
Phasenstatus In Orbit
Besitzer/Staat SPXS/US

Große Konstellationen

Loading constellations...